Location: Newark
(11.0000°N, 10.0000°W)
Time: 11:36:47
(UTC+00:00)

OTV 5 (USA 277) - Visible Passes

Search period start: 21 March 2019 00:00
Search period end: 31 March 2019 00:00
Orbit: 315 x 320 km, 54.5° (Epoch: 14 March)

Date Brightness Start Highest point End Pass type
(mag) Time Alt. Az. Time Alt. Az. Time Alt. Az.
26 Mar ? 05:23:27 10° SE 05:24:33 12° ESE 05:25:38 10° E visible
27 Mar ? 05:37:53 26° SSW 05:39:07 58° ESE 05:41:46 10° NE visible
28 Mar ? 05:53:20 21° WNW 05:53:46 22° NW 05:55:58 10° N visible
